User: anonymous   Login
Location: Laterina
(43.5167°N, 11.7167°E)
Time: 07:34:33
(UTC+00:00)
Language:

TSX-5 - Orbit

View from above orbital plane
View from above orbital plane
View from above satellite
View from above satellite

Ground track
Ground track

The orbit data is extracted from the following two-line orbital elements,

1 26374U   030A   20336.61728742  .00002885  00000-0  23219-3 0  9999
2 26374  68.9285 121.9354 0642500 275.6937  77.1294 14.08399168 33794
Epoch (UTC): 01 December 2020 14:48:53
Eccentricity: 0.0642500
inclination: 68.9285°
perigee height: 399 km
apogee height: 1330 km
right ascension of ascending node: 121.9354°
argument of perigee: 275.6937°
revolutions per day: 14.08399168
mean anomaly at epoch: 77.1294°
orbit number at epoch: 3379

The dashed part of the orbit path shows where the satellite is in the earth's shadow,  

DLR